Вернуться в каталог

BREEZE-M DEB

АктивенHEO
NORAD 32026·DEBRIS·🇷🇺 Russia

Запущен Feb 28, 2006 с Baikonur Cosmodrome

Loading…

Ближайшие Пролёты (ближайшие 24 часа)

TLE

СвежийSource: Space-Track

Эпоха: Sep 14, 2026, 05:07 UTC

1 32026U 06006D   26257.21352309  .00002399  00000-0  10497-1 0  9997
2 32026  51.3057 346.8582 3824737 344.1822  13.8377  7.04685086448021

Отслеживайте BREEZE-M DEB в реальном времени с AllMySat

Download on the App Store